Terminal Aerodrome Forecast
Issued by NWS

Home | Current Version | Previous Version | Text Only | Print | Product List | Glossary Off
Versions: 1 2 3 4 5 6 7 8 9 10 11 12 13 14 15 16 17 18 19 20 21 22 23 24 25 26 27 28 29 30

000
FTUS43 KLOT 170300 AAA
TAFDPA
TAF AMD
KDPA 170308Z 1703/1724 30013G20KT P6SM OVC020
     FM171200 29012G17KT P6SM BKN025
     FM171800 29010G15KT P6SM SCT025=

USA.gov is the U.S. government's official web portal to all federal, state and local government web resources and services.